Weather in Repyevka

Russia / Orenburg Oblast     52°16′51″N   56°14′09″E
temp.,
°C
wind,
m/s
gust,
m/s
humid.,
%
clouds,
%
prec.,
mm/h
press.,
hPa
HPBL,
m
22 october, fri
fri2223:000ssw91899100 5.6 1012774
02:00+1sw91797100 4.4 1010699
05:00+2wsw61391100 4.8 1010362
08:00+3wsw61294100 0.0 1011304
11:00+4sw6119592 0.2 1012289
14:00+8sw81373100 0.0 1012665
17:00+9sw81561100 0.0 1011486
20:00+8sw8165788 0.0 1012392
23 october, sat
sat2323:00+8sw715585 0.0 1013334
02:00+7sw7136612 0.0 1014281
05:00+6sw6127148 0.0 1015235
08:00+5sw51074100 0.0 1016195
11:00+9sw61266100 0.0 1017452
14:00+12sw71262100 0.0 1017712
17:00+12sw61165100 0.0 1017472
20:00+9sw387797 0.0 1018160
24 october, sun
sun2423:00+8ssw338069 0.0 101824
02:00+8s3480100 0.0 101765
05:00+9s51183100 0.6 1015292
08:00+9ssw71490100 0.1 1014524
11:00+10ssw91478100 0.1 1013755
14:00+10sw81383100 0.6 1013606
17:00+9wsw5996100 2.9 1013440
20:00+8w2496100 5.3 1014259
25 october, mon
mon2523:00+7wsw2496100 9.5 1014208
02:00+8wnw2287100 1.8 101466
05:00+7n2480100 1.9 1014105
08:00+6n2280100 0.2 101566
11:00+7nne3370100 0.2 1015428
14:00+8n3357100 0.0 1015767
17:00+7nnw5557100 0.0 1016813
20:00+4nw34675 0.0 101766
26 october, tue
tue2623:00+2nw23725 0.0 101839
02:00+1nnw7118533 0.0 1019551
05:00−1nnw7137946 0.0 1022692
08:00−2n7127538 0.0 1024673
11:00−1n79595 0.0 1026770
14:00+1nnw78495 0.0 10271005
17:00+1nnw57490 0.0 1027876
20:00−1wnw116093 0.0 102910